Location: *
(48.8667°N, 2.3331°E)
Time: 08:37:02
(UTC+00:00)

MOS 1 - Pass Details

Date: 09 April 2020
Orbit: 879 x 891 km, 99.2° (Epoch: 01 June)

Event Time Altitude Azimuth Distance (km) Brightness Sun altitude
Rises 19:12:06 0° 159° (SSE) 3,468 7.0 -6.8°
Reaches altitude 10° 19:14:29 10° 158° (SSE) 2,535 6.3 -7.2°
Maximum altitude 19:20:07 82° 73° (ENE) 900 4.3 -8.0°
Drops below altitude 10° 19:25:50 10° 346° (NNW) 2,560 7.3 -8.9°
Sets 19:28:14 0° 346° (NNW) 3,506 8.0 -9.3°
